| Date | Time | Temp. (oF) | Dew Point (oF) | Rel. Hum. (%) | Press. (in.) | Wind Dir. | Wind Speed (mph) | Hourly Rainfall (in.) |
|
|---|---|---|---|---|---|---|---|---|---|
| 1 | 12/16 | 00:00 | 38 | 28 | 69 | 30.14 | N | 7 | 0.00 |
| 2 | 12/15 | 23:00 | 39 | 27 | 64 | 30.13 | NNE | 6 | 0.00 |
| 3 | 12/15 | 22:00 | 41 | 31 | 70 | 30.10 | NNW | 4 | 0.00 |
| 4 | 12/15 | 21:00 | 42 | 35 | 77 | 30.08 | SW | 4 | 0.00 |
| 5 | 12/15 | 20:00 | 43 | 35 | 76 | 30.06 | NW | 13 | 0.00 |
| 6 | 12/15 | 19:00 | 44 | 36 | 74 | 30.05 | WNW | 9 | 0.00 |
| 7 | 12/15 | 18:00 | 44 | 36 | 74 | 30.03 | WNW | 13 | 0.00 |
| 8 | 12/15 | 17:00 | 46 | 37 | 73 | 30.01 | WNW | 12 | 0.00 |
| 9 | 12/15 | 16:00 | 46 | 39 | 77 | 30.00 | W | 0 | 0.00 |
| 10 | 12/15 | 15:00 | 47 | 40 | 79 | 29.98 | WSW | 1 | 0.00 |
| 11 | 12/15 | 14:00 | 47 | 42 | 84 | 29.95 | NNW | 6 | 0.00 |
| 12 | 12/15 | 13:00 | 48 | 46 | 95 | 29.94 | WSW | 3 | 0.00 |
| 13 | 12/15 | 12:00 | 45 | 45 | 100 | 29.95 | NW | 1 | 0.00 |
| 14 | 12/15 | 11:00 | 45 | 45 | 100 | 29.97 | WSW | 3 | 0.00 |
| 15 | 12/15 | 10:00 | 44 | 44 | 100 | 29.98 | WSW | 3 | 0.00 |
| 16 | 12/15 | 09:00 | 44 | 44 | 100 | 29.95 | NNW | 4 | 0.00 |
| 17 | 12/15 | 08:00 | 44 | 44 | 100 | 29.92 | NNW | 0 | 0.00 |
| 18 | 12/15 | 07:00 | 44 | 44 | 100 | 29.91 | SSW | 3 | 0.00 |
| 19 | 12/15 | 06:00 | 44 | 44 | 100 | 29.90 | SW | 4 | 0.00 |
| 20 | 12/15 | 05:00 | 44 | 43 | 99 | 29.89 | SSE | 3 | 0.00 |
| 21 | 12/15 | 04:00 | 45 | 44 | 99 | 29.90 | S | 0 | 0.00 |
| 22 | 12/15 | 03:00 | 44 | 43 | 98 | 29.90 | S | 1 | 0.00 |
| 23 | 12/15 | 02:00 | 45 | 44 | 97 | 29.90 | SSW | 2 | 0.00 |
| 24 | 12/15 | 01:00 | 45 | 44 | 97 | 29.89 | SSW | 3 | 0.00 |